BAW8648 EBBR-EDDF

Flight info

Callsign BAW8648
Flight time 0h 33m
Altitude 23000
Route SPI4V SPI T180 NIVNU T847 IMCOM IMCOM1D
Aircraft A320/M-SDE3FGIJ1KRWXY/SB1

Departure

Time 2026-05-01 13:54
Airport Brussels Airport (EBBR)

Arrival

Time 2026-05-01 14:28
Airport Frankfurt Main Airport (EDDF)
Time Latitude Longitude Altitude Speed Heading
2026-05-01 13:22 50.90028 4.48994 127 ft 0 kts 335°
2026-05-01 13:44 50.90011 4.49007 129 ft 4 kts 335°
2026-05-01 13:45 50.89987 4.49025 133 ft 4 kts 335°
2026-05-01 13:45 50.89962 4.49041 134 ft 4 kts 341°
2026-05-01 13:45 50.89937 4.49050 136 ft 4 kts 12°
2026-05-01 13:45 50.89925 4.49041 136 ft 0 kts 65°
2026-05-01 13:47 50.89926 4.49045 136 ft 1 kts 65°
2026-05-01 13:48 50.89935 4.49075 136 ft 5 kts 65°
2026-05-01 13:48 50.89956 4.49150 135 ft 10 kts 66°
2026-05-01 13:48 50.89949 4.49255 135 ft 11 kts 148°
2026-05-01 13:48 50.89883 4.49242 138 ft 9 kts 194°
2026-05-01 13:49 50.89832 4.49221 141 ft 7 kts 194°
2026-05-01 13:49 50.89767 4.49194 145 ft 14 kts 195°
2026-05-01 13:49 50.89661 4.49150 151 ft 15 kts 198°
2026-05-01 13:49 50.89577 4.49071 155 ft 14 kts 199°
2026-05-01 13:50 50.89485 4.49032 158 ft 14 kts 193°
2026-05-01 13:50 50.89393 4.49011 162 ft 12 kts 163°
2026-05-01 13:50 50.89340 4.49085 166 ft 9 kts 155°
2026-05-01 13:50 50.89294 4.49078 168 ft 0 kts 195°
2026-05-01 13:52 50.89286 4.49075 169 ft 4 kts 195°
2026-05-01 13:52 50.89251 4.49060 171 ft 7 kts 195°
2026-05-01 13:52 50.89197 4.49037 175 ft 10 kts 195°
2026-05-01 13:53 50.89144 4.49075 176 ft 11 kts 88°
2026-05-01 13:53 50.89296 4.49741 177 ft 86 kts 70°
2026-05-01 13:53 50.89571 4.50928 175 ft 140 kts 70°
2026-05-01 13:54 50.89940 4.52512 522 ft 153 kts 69°
2026-05-01 13:54 50.90380 4.54022 1179 ft 153 kts 65°
2026-05-01 13:54 50.90866 4.55531 1803 ft 153 kts 64°
2026-05-01 13:54 50.91358 4.57015 2412 ft 155 kts 64°
2026-05-01 13:55 50.91855 4.58520 3060 ft 152 kts 65°
2026-05-01 13:55 50.92342 4.60008 3555 ft 156 kts 66°
2026-05-01 13:55 50.92851 4.61604 3922 ft 169 kts 65°
2026-05-01 13:55 50.93411 4.63339 4306 ft 184 kts 65°
2026-05-01 13:56 50.93912 4.65301 4662 ft 202 kts 75°
2026-05-01 13:56 50.94353 4.67567 4972 ft 227 kts 75°
2026-05-01 13:56 50.94830 4.70073 5488 ft 248 kts 75°
2026-05-01 13:56 50.95323 4.72809 6025 ft 267 kts 80°
2026-05-01 13:57 50.95365 4.75753 6885 ft 269 kts 101°
2026-05-01 13:57 50.95035 4.77640 7497 ft 269 kts 114°
2026-05-01 13:57 50.93624 4.80937 8596 ft 277 kts 138°
2026-05-01 13:57 50.92142 4.82922 9418 ft 282 kts 141°
2026-05-01 13:58 50.90618 4.84920 10292 ft 285 kts 141°
2026-05-01 13:58 50.88952 4.86765 10805 ft 304 kts 152°
2026-05-01 13:58 50.87667 4.87660 10965 ft 319 kts 161°
2026-05-01 13:58 50.86296 4.88245 11185 ft 331 kts 169°
2026-05-01 13:59 50.84573 4.88554 11677 ft 337 kts 175°
2026-05-01 13:59 50.82217 4.88865 12449 ft 342 kts 174°
2026-05-01 13:59 50.79832 4.89225 13237 ft 346 kts 173°
2026-05-01 13:59 50.77423 4.89613 14006 ft 350 kts 173°
2026-05-01 14:00 50.74981 4.90016 14753 ft 354 kts 173°
2026-05-01 14:00 50.72519 4.90425 15488 ft 358 kts 173°
2026-05-01 14:00 50.70079 4.91272 16161 ft 361 kts 159°
2026-05-01 14:00 50.67843 4.93098 16830 ft 365 kts 144°
2026-05-01 14:01 50.65984 4.95827 17475 ft 369 kts 129°
2026-05-01 14:01 50.64642 4.99282 18114 ft 373 kts 113°
2026-05-01 14:01 50.63799 5.03169 18769 ft 377 kts 108°
2026-05-01 14:01 50.62999 5.07118 19414 ft 380 kts 108°
2026-05-01 14:02 50.62186 5.11102 20055 ft 384 kts 108°
2026-05-01 14:02 50.61358 5.15123 20701 ft 388 kts 108°
2026-05-01 14:02 50.60518 5.19182 21316 ft 392 kts 108°
2026-05-01 14:02 50.59667 5.23280 21907 ft 396 kts 108°
2026-05-01 14:03 50.58817 5.27358 22453 ft 399 kts 108°
2026-05-01 14:03 50.57949 5.31529 23000 ft 403 kts 108°
2026-05-01 14:03 50.57071 5.35740 23561 ft 407 kts 108°
2026-05-01 14:03 50.56181 5.39983 24116 ft 410 kts 108°
2026-05-01 14:04 50.55282 5.44262 24673 ft 414 kts 108°
2026-05-01 14:04 50.54379 5.48573 25222 ft 417 kts 108°
2026-05-01 14:04 50.53468 5.52917 25742 ft 421 kts 108°
2026-05-01 14:04 50.52842 5.55879 26093 ft 424 kts 108°
2026-05-01 14:05 50.51605 5.61722 26779 ft 427 kts 108°
2026-05-01 14:05 50.50689 5.66181 27146 ft 430 kts 107°
2026-05-01 14:05 50.49831 5.70670 27237 ft 428 kts 106°
2026-05-01 14:05 50.49013 5.75147 27252 ft 426 kts 105°
2026-05-01 14:06 50.48210 5.79623 27253 ft 425 kts 105°
2026-05-01 14:06 50.47405 5.84083 27248 ft 425 kts 105°
2026-05-01 14:06 50.46588 5.88553 27248 ft 425 kts 105°
2026-05-01 14:06 50.45763 5.92987 27252 ft 425 kts 106°
2026-05-01 14:07 50.44925 5.97433 27252 ft 425 kts 106°
2026-05-01 14:07 50.44080 6.01868 27258 ft 425 kts 106°
2026-05-01 14:07 50.43229 6.06304 27256 ft 425 kts 106°
2026-05-01 14:08 50.41525 6.15177 27261 ft 425 kts 106°
2026-05-01 14:08 50.40676 6.19616 27264 ft 425 kts 106°
2026-05-01 14:08 50.39827 6.24061 27265 ft 425 kts 106°
2026-05-01 14:08 50.38976 6.28499 27266 ft 425 kts 106°
2026-05-01 14:09 50.38123 6.32934 27268 ft 425 kts 106°
2026-05-01 14:09 50.37269 6.37364 27269 ft 425 kts 106°
2026-05-01 14:09 50.36497 6.41831 27271 ft 425 kts 101°
2026-05-01 14:09 50.36118 6.46415 27271 ft 425 kts 95°
2026-05-01 14:10 50.35845 6.51022 27267 ft 425 kts 95°
2026-05-01 14:10 50.35564 6.55617 27153 ft 420 kts 95°
2026-05-01 14:10 50.35279 6.60136 26885 ft 414 kts 95°
2026-05-01 14:10 50.34991 6.64592 26383 ft 410 kts 95°
2026-05-01 14:11 50.34700 6.69022 25864 ft 407 kts 95°
2026-05-01 14:11 50.34130 6.77761 24889 ft 400 kts 95°
2026-05-01 14:11 50.33860 6.82080 24403 ft 397 kts 96°
2026-05-01 14:12 50.33364 6.86308 23930 ft 394 kts 105°
2026-05-01 14:12 50.32412 6.90291 23485 ft 390 kts 115°
2026-05-01 14:12 50.31264 6.94126 23030 ft 387 kts 115°
2026-05-01 14:12 50.30124 6.97928 22565 ft 384 kts 115°
2026-05-01 14:13 50.28994 7.01696 22101 ft 381 kts 115°
2026-05-01 14:13 50.28251 7.04177 21765 ft 381 kts 115°
2026-05-01 14:13 50.26756 7.09179 21097 ft 378 kts 115°
2026-05-01 14:13 50.25647 7.12889 20608 ft 375 kts 115°
2026-05-01 14:14 50.24545 7.16571 20110 ft 373 kts 115°
2026-05-01 14:14 50.23450 7.20227 19625 ft 370 kts 115°
2026-05-01 14:14 50.22363 7.23853 19137 ft 367 kts 115°
2026-05-01 14:14 50.21298 7.27399 18662 ft 364 kts 115°
2026-05-01 14:15 50.20095 7.30832 18331 ft 359 kts 125°
2026-05-01 14:15 50.18628 7.33961 17883 ft 356 kts 126°
2026-05-01 14:15 50.17239 7.37141 17268 ft 351 kts 121°
2026-05-01 14:15 50.15974 7.40428 15974 ft 358 kts 120°
2026-05-01 14:16 50.14725 7.43805 14824 ft 360 kts 119°
2026-05-01 14:16 50.13505 7.47145 14240 ft 349 kts 119°
2026-05-01 14:16 50.12315 7.50410 13767 ft 344 kts 119°
2026-05-01 14:16 50.11136 7.53628 13283 ft 341 kts 120°
2026-05-01 14:17 50.09959 7.56816 12804 ft 338 kts 120°
2026-05-01 14:17 50.08786 7.59972 12325 ft 335 kts 120°
2026-05-01 14:17 50.07623 7.63100 11858 ft 332 kts 120°
2026-05-01 14:17 50.06467 7.66199 11394 ft 330 kts 120°
2026-05-01 14:18 50.05319 7.69269 10930 ft 327 kts 120°
2026-05-01 14:18 50.04177 7.72313 10494 ft 325 kts 120°
2026-05-01 14:18 50.03063 7.75300 10349 ft 313 kts 120°
2026-05-01 14:18 50.02333 7.77254 10261 ft 306 kts 120°
2026-05-01 14:19 50.00948 7.80958 10097 ft 293 kts 120°
2026-05-01 14:19 50.00274 7.82759 9978 ft 288 kts 120°
2026-05-01 14:19 49.99267 7.85437 9667 ft 287 kts 120°
2026-05-01 14:19 49.98260 7.88103 9273 ft 287 kts 121°
2026-05-01 14:20 49.97257 7.90760 9003 ft 284 kts 120°
2026-05-01 14:20 49.95274 7.96020 8343 ft 281 kts 121°
2026-05-01 14:20 49.94294 7.98619 7900 ft 277 kts 121°
2026-05-01 14:21 49.93326 8.01192 7288 ft 275 kts 121°
2026-05-01 14:21 49.92410 8.03772 6694 ft 272 kts 112°
2026-05-01 14:21 49.91990 8.06603 6401 ft 268 kts 94°
2026-05-01 14:22 49.92770 8.12216 5800 ft 270 kts 70°
2026-05-01 14:22 49.93443 8.14936 5449 ft 270 kts 70°
2026-05-01 14:22 49.94112 8.17667 5085 ft 272 kts 70°
2026-05-01 14:22 49.94777 8.20397 4721 ft 267 kts 71°
2026-05-01 14:23 49.95421 8.23044 4358 ft 258 kts 71°
2026-05-01 14:23 49.96043 8.25602 4038 ft 248 kts 71°
2026-05-01 14:23 49.96640 8.28060 3721 ft 238 kts 71°
2026-05-01 14:23 49.97211 8.30416 3409 ft 229 kts 71°
2026-05-01 14:24 49.97765 8.32705 3107 ft 223 kts 71°
2026-05-01 14:24 49.98299 8.34921 2828 ft 216 kts 71°
2026-05-01 14:24 49.98820 8.37076 2525 ft 209 kts 71°
2026-05-01 14:24 49.99324 8.39161 2267 ft 204 kts 71°
2026-05-01 14:25 49.99820 8.41215 1988 ft 200 kts 71°
2026-05-01 14:25 50.00297 8.43191 1764 ft 190 kts 70°
2026-05-01 14:25 50.00741 8.45036 1506 ft 174 kts 71°
2026-05-01 14:25 50.01145 8.46717 1286 ft 157 kts 70°
2026-05-01 14:26 50.01509 8.48234 1061 ft 145 kts 71°
2026-05-01 14:26 50.02197 8.51098 677 ft 140 kts 70°
2026-05-01 14:26 50.02532 8.52495 517 ft 139 kts 71°
2026-05-01 14:27 50.02877 8.53920 366 ft 139 kts 70°
2026-05-01 14:27 50.03185 8.55219 348 ft 110 kts 69°
2026-05-01 14:27 50.03407 8.56148 357 ft 77 kts 70°
2026-05-01 14:28 50.03685 8.57059 357 ft 21 kts 42°
2026-05-01 14:28 50.03784 8.57187 358 ft 18 kts 39°
2026-05-01 14:28 50.03878 8.57311 361 ft 18 kts 40°
2026-05-01 14:28 50.03964 8.57449 364 ft 18 kts 65°
2026-05-01 14:29 50.04010 8.57640 371 ft 20 kts 69°
2026-05-01 14:29 50.04060 8.57851 368 ft 22 kts 70°
2026-05-01 14:30 50.04226 8.58538 369 ft 22 kts 70°
2026-05-01 14:30 50.04280 8.58769 372 ft 23 kts 69°
2026-05-01 14:30 50.04338 8.59003 376 ft 23 kts 70°
2026-05-01 14:31 50.04449 8.59452 375 ft 13 kts 55°
2026-05-01 14:31 50.04537 8.59469 374 ft 9 kts 358°
2026-05-01 14:31 50.04562 8.59468 373 ft 2 kts 358°
2026-05-01 14:31 50.04592 8.59466 373 ft 6 kts 358°
2026-05-01 14:32 50.04654 8.59458 372 ft 12 kts 351°
2026-05-01 14:32 50.04747 8.59416 372 ft 16 kts 339°
2026-05-01 14:32 50.04868 8.59358 370 ft 18 kts
2026-05-01 14:32 50.04977 8.59350 368 ft 17 kts 340°
2026-05-01 14:33 50.05078 8.59262 364 ft 16 kts 296°
2026-05-01 14:33 50.05067 8.59140 359 ft 4 kts 281°
2026-05-01 14:33 50.05096 8.59109 362 ft 6 kts 338°
2026-05-01 14:33 50.05144 8.59082 366 ft 4 kts 340°
2026-05-01 14:34 50.05154 8.59076 362 ft 1 kts 340°